Time,TemperatureF,DewpointF,PressureIn,WindDirection,WindDirectionDegrees,WindSpeedMPH,WindSpeedGustMPH,Humidity,HourlyPrecipIn,Conditions,Clouds,dailyrainin,SolarRadiationWatts/m^2,SoftwareType,DateUTC
2015-01-25 00:05:00,32.5,31.7,29.69,North,355,5.0,9.0,97,0.00,,,0.00,0,Wunderground v.1.15,2015-01-25 06:05:00,
2015-01-25 00:11:00,32.5,31.7,29.69,North,9,4.0,8.0,97,0.00,,,0.00,0,Wunderground v.1.15,2015-01-25 06:11:00,
2015-01-25 00:17:00,32.5,31.7,29.69,NNE,16,4.0,9.0,97,0.00,,,0.00,0,Wunderground v.1.15,2015-01-25 06:17:00,
2015-01-25 00:23:00,32.5,31.7,29.70,NNW,346,8.0,8.0,97,0.00,,,0.00,0,Wunderground v.1.15,2015-01-25 06:23:00,
2015-01-25 00:29:00,32.5,31.7,29.70,NNE,15,9.0,12.0,97,0.00,,,0.00,0,Wunderground v.1.15,2015-01-25 06:29:00,
2015-01-25 00:35:00,32.5,31.7,29.70,North,10,7.0,10.0,97,0.00,,,0.00,0,Wunderground v.1.15,2015-01-25 06:35:00,
2015-01-25 00:41:00,32.5,31.7,29.70,North,5,14.0,14.0,97,0.00,,,0.00,0,Wunderground v.1.15,2015-01-25 06:41:00,
2015-01-25 00:47:00,32.4,31.6,29.70,NNE,24,12.0,14.0,97,0.00,,,0.00,0,Wunderground v.1.15,2015-01-25 06:47:00,
2015-01-25 00:53:00,32.4,31.4,29.70,North,5,9.0,12.0,96,0.00,,,0.00,0,Wunderground v.1.15,2015-01-25 06:53:00,
2015-01-25 00:59:00,32.4,31.4,29.70,NNE,15,8.0,12.0,96,0.00,,,0.00,0,Wunderground v.1.15,2015-01-25 06:59:00,
2015-01-25 01:04:00,32.4,31.4,29.70,North,360,11.0,13.0,96,0.00,,,0.00,0,Wunderground v.1.15,2015-01-25 07:04:00,
2015-01-25 01:10:00,32.4,31.4,29.71,North,355,10.0,11.0,96,0.00,,,0.00,0,Wunderground v.1.15,2015-01-25 07:10:00,
2015-01-25 01:15:00,32.3,31.3,29.71,North,9,9.0,11.0,96,0.00,,,0.00,0,Wunderground v.1.15,2015-01-25 07:15:00,
2015-01-25 01:21:00,32.3,31.3,29.71,NNE,15,12.0,12.0,96,0.00,,,0.00,0,Wunderground v.1.15,2015-01-25 07:21:00,
2015-01-25 01:27:00,32.3,31.5,29.71,North,5,10.0,14.0,97,0.00,,,0.01,0,Wunderground v.1.15,2015-01-25 07:27:00,
2015-01-25 01:33:00,32.4,31.6,29.72,North,9,11.0,15.0,97,0.00,,,0.01,0,Wunderground v.1.15,2015-01-25 07:33:00,
2015-01-25 01:39:00,32.4,31.6,29.72,North,349,12.0,15.0,97,0.00,,,0.01,0,Wunderground v.1.15,2015-01-25 07:39:00,
2015-01-25 01:45:00,32.4,31.6,29.72,NNW,346,13.0,14.0,97,0.00,,,0.01,0,Wunderground v.1.15,2015-01-25 07:45:00,
2015-01-25 01:51:00,32.4,31.6,29.72,North,350,10.0,11.0,97,0.00,,,0.01,0,Wunderground v.1.15,2015-01-25 07:51:00,
2015-01-25 01:57:00,32.4,31.6,29.73,North,5,9.0,12.0,97,0.00,,,0.01,0,Wunderground v.1.15,2015-01-25 07:57:00,
2015-01-25 02:02:00,32.4,31.6,29.73,North,9,10.0,18.0,97,0.00,,,0.01,0,Wunderground v.1.15,2015-01-25 08:02:00,
2015-01-25 02:07:00,32.4,31.6,29.74,North,355,15.0,18.0,97,0.00,,,0.01,0,Wunderground v.1.15,2015-01-25 08:07:00,
2015-01-25 02:12:00,32.4,31.6,29.74,North,355,13.0,16.0,97,0.00,,,0.01,0,Wunderground v.1.15,2015-01-25 08:12:00,
2015-01-25 02:17:00,32.4,31.4,29.75,NNW,348,16.0,16.0,96,0.00,,,0.01,0,Wunderground v.1.15,2015-01-25 08:17:00,
2015-01-25 02:22:00,32.4,31.6,29.75,NNE,14,11.0,15.0,97,0.00,,,0.01,0,Wunderground v.1.15,2015-01-25 08:22:00,
2015-01-25 02:27:00,32.4,31.6,29.75,North,5,13.0,16.0,97,0.00,,,0.01,0,Wunderground v.1.15,2015-01-25 08:27:00,
2015-01-25 02:32:00,32.5,31.7,29.76,NNE,26,11.0,16.0,97,0.00,,,0.01,0,Wunderground v.1.15,2015-01-25 08:32:00,
2015-01-25 02:37:00,32.5,31.7,29.76,North,355,13.0,16.0,97,0.00,,,0.01,0,Wunderground v.1.15,2015-01-25 08:37:00,
2015-01-25 02:42:00,32.5,31.7,29.77,NNE,12,10.0,14.0,97,0.00,,,0.01,0,Wunderground v.1.15,2015-01-25 08:42:00,
2015-01-25 02:47:00,32.5,31.7,29.77,North,9,7.0,16.0,97,0.00,,,0.01,0,Wunderground v.1.15,2015-01-25 08:47:00,
2015-01-25 02:52:00,32.5,31.7,29.77,NNE,29,9.0,16.0,97,0.00,,,0.01,0,Wunderground v.1.15,2015-01-25 08:52:00,
2015-01-25 02:57:00,32.5,31.7,29.77,North,360,10.0,16.0,97,0.00,,,0.01,0,Wunderground v.1.15,2015-01-25 08:57:00,
2015-01-25 03:02:00,32.6,31.8,29.78,North,11,7.0,14.0,97,0.00,,,0.01,0,Wunderground v.1.15,2015-01-25 09:02:00,
2015-01-25 03:07:00,32.6,31.8,29.78,North,355,11.0,15.0,97,0.00,,,0.01,0,Wunderground v.1.15,2015-01-25 09:07:00,
2015-01-25 03:12:00,32.6,31.8,29.78,NNE,15,11.0,15.0,97,0.00,,,0.01,0,Wunderground v.1.15,2015-01-25 09:12:00,
2015-01-25 03:17:00,32.6,31.8,29.78,North,9,9.0,16.0,97,0.00,,,0.01,0,Wunderground v.1.15,2015-01-25 09:17:00,
2015-01-25 03:22:00,32.6,31.8,29.78,NNW,348,14.0,17.0,97,0.00,,,0.01,0,Wunderground v.1.15,2015-01-25 09:22:00,
2015-01-25 03:27:00,32.6,31.8,29.78,North,360,10.0,20.0,97,0.00,,,0.01,0,Wunderground v.1.15,2015-01-25 09:27:00,
2015-01-25 03:32:00,32.6,31.8,29.79,NNW,342,6.0,14.0,97,0.00,,,0.01,0,Wunderground v.1.15,2015-01-25 09:32:00,
2015-01-25 03:37:00,32.5,31.7,29.79,North,5,8.0,16.0,97,0.00,,,0.01,0,Wunderground v.1.15,2015-01-25 09:37:00,
2015-01-25 03:42:00,32.5,31.7,29.79,NNE,30,8.0,14.0,97,0.00,,,0.01,0,Wunderground v.1.15,2015-01-25 09:42:00,
2015-01-25 03:47:00,32.5,31.7,29.80,NNE,15,9.0,14.0,97,0.00,,,0.01,0,Wunderground v.1.15,2015-01-25 09:47:00,
2015-01-25 03:52:00,32.5,31.7,29.80,NNE,22,8.0,12.0,97,0.00,,,0.01,0,Wunderground v.1.15,2015-01-25 09:52:00,
2015-01-25 03:57:00,32.5,31.7,29.80,NNE,19,10.0,17.0,97,0.00,,,0.01,0,Wunderground v.1.15,2015-01-25 09:57:00,
2015-01-25 04:02:00,32.5,31.7,29.81,NNE,28,9.0,14.0,97,0.00,,,0.01,0,Wunderground v.1.15,2015-01-25 10:02:00,
2015-01-25 04:07:00,32.5,31.7,29.81,NE,34,9.0,14.0,97,0.00,,,0.01,0,Wunderground v.1.15,2015-01-25 10:07:00,
2015-01-25 04:12:00,32.5,31.7,29.81,NNE,19,7.0,12.0,97,0.00,,,0.01,0,Wunderground v.1.15,2015-01-25 10:12:00,
2015-01-25 04:17:00,32.5,31.7,29.82,NNE,17,13.0,14.0,97,0.00,,,0.01,0,Wunderground v.1.15,2015-01-25 10:17:00,
2015-01-25 04:22:00,32.5,31.5,29.82,NNW,336,17.0,17.0,96,0.00,,,0.01,0,Wunderground v.1.15,2015-01-25 10:22:00,
2015-01-25 04:27:00,32.5,31.7,29.82,ENE,60,9.0,17.0,97,0.00,,,0.01,0,Wunderground v.1.15,2015-01-25 10:27:00,
2015-01-25 04:32:00,32.5,31.7,29.83,NNE,19,11.0,13.0,97,0.00,,,0.01,0,Wunderground v.1.15,2015-01-25 10:32:00,
2015-01-25 04:37:00,32.5,31.5,29.83,North,5,15.0,17.0,96,0.00,,,0.01,0,Wunderground v.1.15,2015-01-25 10:37:00,
2015-01-25 04:42:00,32.5,31.5,29.83,NNE,17,12.0,21.0,96,0.00,,,0.01,0,Wunderground v.1.15,2015-01-25 10:42:00,
2015-01-25 04:47:00,32.5,31.7,29.84,North,10,7.0,21.0,97,0.00,,,0.01,0,Wunderground v.1.15,2015-01-25 10:47:00,
2015-01-25 04:52:00,32.4,31.4,29.84,NNE,17,12.0,15.0,96,0.00,,,0.01,0,Wunderground v.1.15,2015-01-25 10:52:00,
2015-01-25 04:57:00,32.5,31.5,29.84,NE,34,6.0,17.0,96,0.00,,,0.01,0,Wunderground v.1.15,2015-01-25 10:57:00,
2015-01-25 05:02:00,32.4,31.4,29.85,NE,38,13.0,17.0,96,0.00,,,0.01,0,Wunderground v.1.15,2015-01-25 11:02:00,
2015-01-25 05:07:00,32.4,31.4,29.85,NE,41,11.0,17.0,96,0.00,,,0.01,0,Wunderground v.1.15,2015-01-25 11:07:00,
2015-01-25 05:12:00,32.4,31.4,29.85,NNE,22,12.0,13.0,96,0.00,,,0.01,0,Wunderground v.1.15,2015-01-25 11:12:00,
2015-01-25 05:17:00,32.4,31.4,29.85,North,5,8.0,17.0,96,0.00,,,0.01,0,Wunderground v.1.15,2015-01-25 11:17:00,
2015-01-25 05:22:00,32.4,31.4,29.86,NNW,342,9.0,17.0,96,0.00,,,0.01,0,Wunderground v.1.15,2015-01-25 11:22:00,
2015-01-25 05:27:00,32.4,31.4,29.86,NNE,26,13.0,17.0,96,0.00,,,0.01,0,Wunderground v.1.15,2015-01-25 11:27:00,
2015-01-25 05:32:00,32.3,31.3,29.86,NNE,26,12.0,16.0,96,0.00,,,0.01,0,Wunderground v.1.15,2015-01-25 11:32:00,
2015-01-25 05:37:00,32.3,31.3,29.86,NNE,19,15.0,21.0,96,0.00,,,0.01,0,Wunderground v.1.15,2015-01-25 11:37:00,
2015-01-25 05:42:00,32.3,31.3,29.87,NNE,15,9.0,15.0,96,0.00,,,0.01,0,Wunderground v.1.15,2015-01-25 11:42:00,
2015-01-25 05:47:00,32.3,31.3,29.87,NNW,340,11.0,16.0,96,0.00,,,0.01,0,Wunderground v.1.15,2015-01-25 11:47:00,
2015-01-25 05:52:00,32.3,31.3,29.87,NE,38,11.0,14.0,96,0.00,,,0.01,0,Wunderground v.1.15,2015-01-25 11:52:00,
2015-01-25 05:57:00,32.2,31.2,29.88,NE,41,7.0,17.0,96,0.00,,,0.01,0,Wunderground v.1.15,2015-01-25 11:57:00,
2015-01-25 06:02:00,32.2,31.2,29.88,NNE,21,11.0,18.0,96,0.00,,,0.01,0,Wunderground v.1.15,2015-01-25 12:02:00,
2015-01-25 06:07:00,32.2,31.2,29.89,North,5,9.0,19.0,96,0.00,,,0.01,0,Wunderground v.1.15,2015-01-25 12:07:00,
2015-01-25 06:12:00,32.2,31.2,29.89,NNE,19,12.0,14.0,96,0.00,,,0.01,0,Wunderground v.1.15,2015-01-25 12:12:00,
2015-01-25 06:17:00,32.1,31.1,29.90,NW,321,15.0,21.0,96,0.00,,,0.01,0,Wunderground v.1.15,2015-01-25 12:17:00,
2015-01-25 06:22:00,32.1,31.1,29.90,NNE,32,13.0,18.0,96,0.00,,,0.01,0,Wunderground v.1.15,2015-01-25 12:22:00,
2015-01-25 06:27:00,32.1,31.1,29.90,NE,47,16.0,20.0,96,0.00,,,0.01,0,Wunderground v.1.15,2015-01-25 12:27:00,
2015-01-25 06:32:00,32.1,31.1,29.90,North,355,12.0,18.0,96,0.00,,,0.01,0,Wunderground v.1.15,2015-01-25 12:32:00,
2015-01-25 06:37:00,32.0,31.0,29.91,NNE,26,11.0,21.0,96,0.00,,,0.01,0,Wunderground v.1.15,2015-01-25 12:37:00,
2015-01-25 06:42:00,31.9,30.6,29.91,NE,42,14.0,17.0,95,0.00,,,0.01,0,Wunderground v.1.15,2015-01-25 12:42:00,
2015-01-25 06:47:00,31.7,30.4,29.92,NE,38,16.0,20.0,95,0.00,,,0.01,0,Wunderground v.1.15,2015-01-25 12:47:00,
2015-01-25 06:52:00,31.6,30.3,29.92,North,355,12.0,15.0,95,0.00,,,0.01,0,Wunderground v.1.15,2015-01-25 12:52:00,
2015-01-25 06:57:00,31.5,30.2,29.92,NNE,13,10.0,19.0,95,0.00,,,0.01,0,Wunderground v.1.15,2015-01-25 12:57:00,
2015-01-25 07:02:00,31.3,30.0,29.93,NE,44,13.0,22.0,95,0.00,,,0.01,0,Wunderground v.1.15,2015-01-25 13:02:00,
2015-01-25 07:07:00,31.1,29.8,29.93,NNE,17,12.0,22.0,95,0.00,,,0.01,0,Wunderground v.1.15,2015-01-25 13:07:00,
2015-01-25 07:12:00,31.0,29.7,29.94,NNE,28,15.0,20.0,95,0.00,,,0.01,0,Wunderground v.1.15,2015-01-25 13:12:00,
2015-01-25 07:17:00,30.9,29.6,29.94,NNE,13,8.0,22.0,95,0.00,,,0.01,0,Wunderground v.1.15,2015-01-25 13:17:00,
2015-01-25 07:22:00,30.8,29.5,29.94,NNE,30,10.0,19.0,95,0.00,,,0.01,0,Wunderground v.1.15,2015-01-25 13:22:00,
2015-01-25 07:27:00,30.8,29.8,29.94,NNE,28,14.0,19.0,96,0.00,,,0.01,0,Wunderground v.1.15,2015-01-25 13:27:00,
2015-01-25 07:32:00,30.7,29.7,29.95,NNE,21,8.0,17.0,96,0.00,,,0.01,0,Wunderground v.1.15,2015-01-25 13:32:00,
2015-01-25 07:37:00,30.7,29.7,29.95,North,5,5.0,17.0,96,0.00,,,0.01,0,Wunderground v.1.15,2015-01-25 13:37:00,
2015-01-25 07:42:00,30.6,29.3,29.95,NE,44,10.0,15.0,95,0.00,,,0.01,0,Wunderground v.1.15,2015-01-25 13:42:00,
2015-01-25 07:48:00,30.4,29.4,29.95,North,11,8.0,16.0,96,0.00,,,0.01,0,Wunderground v.1.15,2015-01-25 13:48:00,
2015-01-25 07:53:00,30.3,29.3,29.96,NNE,31,14.0,19.0,96,0.00,,,0.01,0,Wunderground v.1.15,2015-01-25 13:53:00,
2015-01-25 07:58:00,30.2,29.2,29.96,North,350,13.0,19.0,96,0.00,,,0.01,0,Wunderground v.1.15,2015-01-25 13:58:00,
2015-01-25 08:03:00,30.2,29.2,29.97,NNE,32,9.0,15.0,96,0.00,,,0.01,0,Wunderground v.1.15,2015-01-25 14:03:00,
2015-01-25 08:08:00,30.0,29.0,29.97,NNE,30,9.0,20.0,96,0.00,,,0.01,5,Wunderground v.1.15,2015-01-25 14:08:00,
2015-01-25 08:13:00,29.9,28.6,29.97,North,355,9.0,12.0,95,0.00,,,0.01,11,Wunderground v.1.15,2015-01-25 14:13:00,
2015-01-25 08:18:00,29.9,28.6,29.98,NNE,18,11.0,17.0,95,0.00,,,0.01,14,Wunderground v.1.15,2015-01-25 14:18:00,
2015-01-25 08:23:00,29.8,28.5,29.98,NNE,21,10.0,14.0,95,0.00,,,0.01,19,Wunderground v.1.15,2015-01-25 14:23:00,
2015-01-25 08:28:00,29.8,28.5,29.98,NNE,28,6.0,16.0,95,0.00,,,0.01,19,Wunderground v.1.15,2015-01-25 14:28:00,
2015-01-25 08:33:00,29.8,28.5,29.98,NNE,15,5.0,15.0,95,0.00,,,0.01,21,Wunderground v.1.15,2015-01-25 14:33:00,
2015-01-25 08:38:00,29.9,28.6,29.99,North,5,6.0,15.0,95,0.00,,,0.01,19,Wunderground v.1.15,2015-01-25 14:38:00,
2015-01-25 08:43:00,29.8,28.5,29.99,NNE,18,10.0,15.0,95,0.00,,,0.01,30,Wunderground v.1.15,2015-01-25 14:43:00,
2015-01-25 08:48:00,29.7,28.4,29.99,NNE,24,9.0,17.0,95,0.00,,,0.01,32,Wunderground v.1.15,2015-01-25 14:48:00,
2015-01-25 08:53:00,29.6,28.3,29.99,North,350,8.0,13.0,95,0.00,,,0.01,33,Wunderground v.1.15,2015-01-25 14:53:00,
2015-01-25 08:58:00,29.6,28.3,29.99,North,360,11.0,13.0,95,0.00,,,0.01,44,Wunderground v.1.15,2015-01-25 14:58:00,
2015-01-25 09:03:00,29.5,28.0,29.99,NNE,32,11.0,16.0,94,0.00,,,0.01,56,Wunderground v.1.15,2015-01-25 15:03:00,
2015-01-25 09:08:00,29.5,28.0,30.00,NNE,28,14.0,16.0,94,0.00,,,0.01,62,Wunderground v.1.15,2015-01-25 15:08:00,
2015-01-25 09:13:00,29.5,28.0,30.00,NNE,24,9.0,15.0,94,0.00,,,0.01,51,Wunderground v.1.15,2015-01-25 15:13:00,
2015-01-25 09:18:00,29.6,28.1,30.00,NNE,25,9.0,16.0,94,0.00,,,0.01,58,Wunderground v.1.15,2015-01-25 15:18:00,
2015-01-25 09:23:00,29.7,28.2,30.01,NNE,15,4.0,12.0,94,0.00,,,0.01,54,Wunderground v.1.15,2015-01-25 15:23:00,
2015-01-25 09:28:00,29.6,28.1,30.01,North,360,9.0,14.0,94,0.00,,,0.01,60,Wunderground v.1.15,2015-01-25 15:28:00,
2015-01-25 09:33:00,29.6,28.1,30.01,North,5,3.0,12.0,94,0.00,,,0.01,67,Wunderground v.1.15,2015-01-25 15:33:00,
2015-01-25 09:38:00,29.7,28.2,30.02,North,355,9.0,15.0,94,0.00,,,0.01,67,Wunderground v.1.15,2015-01-25 15:38:00,
2015-01-25 09:43:00,29.6,28.1,30.02,North,360,9.0,14.0,94,0.00,,,0.01,65,Wunderground v.1.15,2015-01-25 15:43:00,
2015-01-25 09:48:00,29.6,28.1,30.02,NE,46,6.0,14.0,94,0.00,,,0.01,79,Wunderground v.1.15,2015-01-25 15:48:00,
2015-01-25 09:53:00,29.6,28.1,30.03,North,5,10.0,14.0,94,0.00,,,0.01,83,Wunderground v.1.15,2015-01-25 15:53:00,
2015-01-25 09:58:00,29.7,28.2,30.03,NNE,16,10.0,15.0,94,0.00,,,0.01,123,Wunderground v.1.15,2015-01-25 15:58:00,
2015-01-25 10:03:00,29.7,28.2,30.03,NNE,20,8.0,14.0,94,0.00,,,0.01,88,Wunderground v.1.15,2015-01-25 16:03:00,
2015-01-25 10:08:00,29.6,27.8,30.04,NNW,344,9.0,16.0,93,0.00,,,0.01,86,Wunderground v.1.15,2015-01-25 16:08:00,
2015-01-25 10:13:00,29.6,27.8,30.04,North,360,9.0,15.0,93,0.00,,,0.01,88,Wunderground v.1.15,2015-01-25 16:13:00,
2015-01-25 10:18:00,29.8,28.3,30.05,North,5,8.0,15.0,94,0.00,,,0.01,91,Wunderground v.1.15,2015-01-25 16:18:00,
2015-01-25 10:23:00,29.8,28.0,30.05,North,355,11.0,14.0,93,0.00,,,0.01,113,Wunderground v.1.15,2015-01-25 16:23:00,
2015-01-25 10:28:00,29.9,28.4,30.05,North,10,16.0,16.0,94,0.00,,,0.01,125,Wunderground v.1.15,2015-01-25 16:28:00,
2015-01-25 10:33:00,29.7,27.9,30.05,NNE,20,8.0,15.0,93,0.00,,,0.01,155,Wunderground v.1.15,2015-01-25 16:33:00,
2015-01-25 10:38:00,29.8,28.0,30.06,North,360,12.0,15.0,93,0.00,,,0.01,146,Wunderground v.1.15,2015-01-25 16:38:00,
2015-01-25 10:43:00,29.7,27.9,30.06,NNE,23,12.0,13.0,93,0.00,,,0.01,162,Wunderground v.1.15,2015-01-25 16:43:00,
2015-01-25 10:48:00,29.8,27.8,30.06,NNE,14,7.0,13.0,92,0.00,,,0.01,262,Wunderground v.1.15,2015-01-25 16:48:00,
2015-01-25 10:53:00,29.9,27.9,30.06,NNE,19,5.0,14.0,92,0.00,,,0.01,146,Wunderground v.1.15,2015-01-25 16:53:00,
2015-01-25 10:58:00,30.0,28.0,30.06,North,5,9.0,14.0,92,0.00,,,0.01,137,Wunderground v.1.15,2015-01-25 16:58:00,
2015-01-25 11:03:00,30.1,28.1,30.05,North,360,8.0,11.0,92,0.00,,,0.01,192,Wunderground v.1.15,2015-01-25 17:03:00,
2015-01-25 11:08:00,30.2,28.2,30.06,NNE,22,8.0,11.0,92,0.00,,,0.02,179,Wunderground v.1.15,2015-01-25 17:08:00,
2015-01-25 11:13:00,29.9,27.9,30.06,North,355,8.0,14.0,92,0.00,,,0.02,141,Wunderground v.1.15,2015-01-25 17:13:00,
2015-01-25 11:18:00,29.7,27.7,30.06,North,355,5.0,14.0,92,0.00,,,0.02,156,Wunderground v.1.15,2015-01-25 17:18:00,
2015-01-25 11:23:00,29.9,28.1,30.06,NE,49,6.0,12.0,93,0.00,,,0.02,158,Wunderground v.1.15,2015-01-25 17:23:00,
2015-01-25 11:28:00,29.9,28.1,30.06,North,9,5.0,12.0,93,0.00,,,0.02,163,Wunderground v.1.15,2015-01-25 17:28:00,
2015-01-25 11:33:00,29.9,28.1,30.06,North,360,10.0,11.0,93,0.00,,,0.02,144,Wunderground v.1.15,2015-01-25 17:33:00,
2015-01-25 11:38:00,29.9,27.9,30.07,North,5,13.0,13.0,92,0.00,,,0.03,137,Wunderground v.1.15,2015-01-25 17:38:00,
2015-01-25 11:43:00,29.7,27.9,30.08,NNE,13,9.0,15.0,93,0.00,,,0.03,139,Wunderground v.1.15,2015-01-25 17:43:00,
2015-01-25 11:48:00,29.6,27.6,30.07,North,5,8.0,15.0,92,0.00,,,0.03,171,Wunderground v.1.15,2015-01-25 17:48:00,
2015-01-25 11:53:00,29.7,27.9,30.07,NE,45,3.0,11.0,93,0.00,,,0.03,151,Wunderground v.1.15,2015-01-25 17:53:00,
2015-01-25 11:58:00,29.8,28.0,30.07,North,5,8.0,12.0,93,0.00,,,0.03,199,Wunderground v.1.15,2015-01-25 17:58:00,
2015-01-25 12:03:00,29.7,27.7,30.07,NNE,13,9.0,14.0,92,0.00,,,0.03,171,Wunderground v.1.15,2015-01-25 18:03:00,
2015-01-25 12:08:00,29.5,27.5,30.07,NE,38,11.0,14.0,92,0.00,,,0.03,165,Wunderground v.1.15,2015-01-25 18:08:00,
2015-01-25 12:13:00,29.5,27.7,30.07,North,360,9.0,11.0,93,0.00,,,0.03,186,Wunderground v.1.15,2015-01-25 18:13:00,
2015-01-25 12:18:00,29.6,27.6,30.08,NNE,18,4.0,13.0,92,0.00,,,0.03,199,Wunderground v.1.15,2015-01-25 18:18:00,
2015-01-25 12:23:00,29.6,27.6,30.08,North,9,5.0,12.0,92,0.00,,,0.03,218,Wunderground v.1.15,2015-01-25 18:23:00,
2015-01-25 12:28:00,29.6,27.6,30.08,North,5,11.0,13.0,92,0.00,,,0.03,199,Wunderground v.1.15,2015-01-25 18:28:00,
2015-01-25 12:33:00,29.5,27.7,30.09,North,355,10.0,13.0,93,0.00,,,0.03,185,Wunderground v.1.15,2015-01-25 18:33:00,
2015-01-25 12:38:00,29.3,27.3,30.08,North,360,6.0,13.0,92,0.00,,,0.03,162,Wunderground v.1.15,2015-01-25 18:38:00,
2015-01-25 12:43:00,29.4,27.6,30.08,NNE,28,8.0,11.0,93,0.00,,,0.03,171,Wunderground v.1.15,2015-01-25 18:43:00,
2015-01-25 12:48:00,29.6,27.8,30.08,North,5,8.0,11.0,93,0.00,,,0.04,200,Wunderground v.1.15,2015-01-25 18:48:00,
2015-01-25 12:53:00,29.7,27.9,30.08,North,355,8.0,11.0,93,0.00,,,0.04,162,Wunderground v.1.15,2015-01-25 18:53:00,
2015-01-25 12:58:00,29.7,27.7,30.08,NE,42,6.0,13.0,92,0.00,,,0.04,179,Wunderground v.1.15,2015-01-25 18:58:00,
2015-01-25 13:03:00,29.8,27.8,30.09,NNW,340,8.0,14.0,92,0.00,,,0.04,253,Wunderground v.1.15,2015-01-25 19:03:00,
2015-01-25 13:08:00,29.4,27.4,30.09,North,355,11.0,14.0,92,0.00,,,0.04,218,Wunderground v.1.15,2015-01-25 19:08:00,
2015-01-25 13:13:00,29.4,27.4,30.09,NNE,30,5.0,11.0,92,0.00,,,0.04,169,Wunderground v.1.15,2015-01-25 19:13:00,
2015-01-25 13:18:00,29.4,27.4,30.09,NE,34,4.0,11.0,92,0.00,,,0.04,181,Wunderground v.1.15,2015-01-25 19:18:00,
2015-01-25 13:23:00,29.6,27.8,30.08,North,360,6.0,11.0,93,0.00,,,0.04,183,Wunderground v.1.15,2015-01-25 19:23:00,
2015-01-25 13:28:00,29.3,27.3,30.09,North,5,9.0,12.0,92,0.00,,,0.04,176,Wunderground v.1.15,2015-01-25 19:28:00,
2015-01-25 13:34:00,29.4,27.4,30.09,North,5,9.0,12.0,92,0.00,,,0.04,218,Wunderground v.1.15,2015-01-25 19:34:00,
2015-01-25 13:39:00,29.3,27.0,30.09,North,5,11.0,13.0,91,0.00,,,0.04,258,Wunderground v.1.15,2015-01-25 19:39:00,
2015-01-25 13:44:00,29.4,27.4,30.09,NE,38,5.0,12.0,92,0.00,,,0.04,183,Wunderground v.1.15,2015-01-25 19:44:00,
2015-01-25 13:49:00,29.5,27.5,30.09,North,5,5.0,12.0,92,0.00,,,0.04,172,Wunderground v.1.15,2015-01-25 19:49:00,
2015-01-25 13:54:00,29.5,27.5,30.09,North,360,6.0,11.0,92,0.00,,,0.04,172,Wunderground v.1.15,2015-01-25 19:54:00,
2015-01-25 13:59:00,29.6,27.6,30.09,NNE,24,5.0,11.0,92,0.00,,,0.04,176,Wunderground v.1.15,2015-01-25 19:59:00,
2015-01-25 14:04:00,29.6,27.0,30.09,NNE,12,5.0,11.0,90,0.00,,,0.04,221,Wunderground v.1.15,2015-01-25 20:04:00,
2015-01-25 14:09:00,29.5,26.7,30.09,NNE,25,3.0,11.0,89,0.00,,,0.04,193,Wunderground v.1.15,2015-01-25 20:09:00,
2015-01-25 14:14:00,29.4,26.8,30.09,NNE,20,5.0,9.0,90,0.00,,,0.04,214,Wunderground v.1.15,2015-01-25 20:14:00,
2015-01-25 14:19:00,29.7,27.1,30.10,NNE,30,4.0,9.0,90,0.00,,,0.04,239,Wunderground v.1.15,2015-01-25 20:19:00,
2015-01-25 14:24:00,29.7,26.9,30.10,NNE,15,7.0,11.0,89,0.00,,,0.04,272,Wunderground v.1.15,2015-01-25 20:24:00,
2015-01-25 14:29:00,30.3,28.0,30.10,NNE,31,4.0,11.0,91,0.00,,,0.04,294,Wunderground v.1.15,2015-01-25 20:29:00,
2015-01-25 14:34:00,30.7,27.6,30.10,NNE,28,6.0,9.0,88,0.00,,,0.04,243,Wunderground v.1.15,2015-01-25 20:34:00,
2015-01-25 14:39:00,30.7,27.6,30.10,North,9,11.0,11.0,88,0.00,,,0.04,104,Wunderground v.1.15,2015-01-25 20:39:00,
2015-01-25 14:44:00,30.7,27.8,30.10,NNE,14,8.0,10.0,89,0.00,,,0.04,188,Wunderground v.1.15,2015-01-25 20:44:00,
2015-01-25 14:49:00,30.7,27.8,30.11,North,9,4.0,10.0,89,0.00,,,0.04,285,Wunderground v.1.15,2015-01-25 20:49:00,
2015-01-25 14:54:00,30.5,27.4,30.11,North,360,6.0,9.0,88,0.00,,,0.04,120,Wunderground v.1.15,2015-01-25 20:54:00,
2015-01-25 14:59:00,30.3,27.4,30.11,North,5,3.0,9.0,89,0.00,,,0.04,121,Wunderground v.1.15,2015-01-25 20:59:00,
2015-01-25 15:04:00,30.4,27.8,30.11,North,9,3.0,8.0,90,0.00,,,0.04,102,Wunderground v.1.15,2015-01-25 21:04:00,
2015-01-25 15:09:00,30.3,27.7,30.11,North,5,6.0,10.0,90,0.00,,,0.04,83,Wunderground v.1.15,2015-01-25 21:09:00,
2015-01-25 15:14:00,30.3,27.7,30.11,North,11,7.0,9.0,90,0.00,,,0.04,69,Wunderground v.1.15,2015-01-25 21:14:00,
2015-01-25 15:19:00,30.2,27.6,30.11,North,360,6.0,10.0,90,0.00,,,0.04,58,Wunderground v.1.15,2015-01-25 21:19:00,
2015-01-25 15:24:00,30.2,27.6,30.11,North,9,8.0,10.0,90,0.00,,,0.04,63,Wunderground v.1.15,2015-01-25 21:24:00,
2015-01-25 15:29:00,30.2,27.6,30.12,NNW,346,6.0,11.0,90,0.00,,,0.04,58,Wunderground v.1.15,2015-01-25 21:29:00,
2015-01-25 15:34:00,30.2,27.6,30.12,NNE,18,7.0,10.0,90,0.00,,,0.04,49,Wunderground v.1.15,2015-01-25 21:34:00,
2015-01-25 15:39:00,30.2,27.6,30.12,North,350,5.0,10.0,90,0.00,,,0.04,51,Wunderground v.1.15,2015-01-25 21:39:00,
2015-01-25 15:44:00,30.3,27.7,30.12,NNW,329,5.0,9.0,90,0.00,,,0.04,46,Wunderground v.1.15,2015-01-25 21:44:00,
2015-01-25 15:49:00,30.3,27.7,30.12,NNE,13,9.0,9.0,90,0.00,,,0.04,39,Wunderground v.1.15,2015-01-25 21:49:00,